Location: Sweet Grass
(48.9965°N, 111.9649°W)
Time: 02:31:25
(UTC+00:00)

CAS-4A - Visible Passes

Search period start: 26 March 2023 00:00
Search period end: 05 April 2023 00:00
Orbit: 510 x 527 km, 43.0° (Epoch: 25 March)

Date Brightness Start Highest point End Pass type
(mag) Time Alt. Az. Time Alt. Az. Time Alt. Az.
28 Mar ? 11:27:52 10° SSE 11:28:56 11° SSE 11:30:01 10° SE visible
29 Mar ? 11:11:33 11° SSE 11:12:30 12° SSE 11:14:09 10° SE visible
30 Mar ? 10:55:54 14° SSE 10:56:01 14° SSE 10:58:03 10° ESE visible
30 Mar ? 12:31:28 10° SW 12:34:59 30° SSE 12:38:32 10° ESE visible
31 Mar ? 10:40:10 15° SE 10:40:10 15° SE 10:41:50 10° ESE visible
31 Mar ? 12:15:07 11° SW 12:18:31 31° S 12:22:05 10° ESE visible
01 Apr ? 10:24:22 14° SE 10:24:22 14° SE 10:25:32 10° ESE visible
01 Apr ? 11:59:19 15° SW 12:01:59 32° S 12:05:37 10° ESE visible
02 Apr ? 10:08:30 13° ESE 10:08:30 13° ESE 10:09:08 10° ESE visible
02 Apr ? 11:43:27 20° SW 11:45:28 33° S 11:49:05 10° ESE visible
03 Apr ? 09:52:36 10° ESE 09:52:36 10° ESE 09:52:41 10° ESE visible
03 Apr ? 11:27:32 26° SSW 11:28:52 34° S 11:32:32 10° ESE visible
04 Apr ? 11:11:37 32° SSW 11:12:16 34° S 11:15:55 10° ESE visible
